Bangor, ME

4:17 PM EST on December 09, 2019 (GMT -0500)
Bangor International

Weather History for KBGR - October, 2019

Change the Weather History Date:

Tuesday, October 1, 2019

  Actual Average Record
Temperature  
Mean Temperature 54 °F 53 °F  
Max Temperature 61 °F 64 °F 85 °F (1948)
Min Temperature 48 °F 42 °F 26 °F (1928)
Degree Days  
Heating Degree Days 12 12  
Month to date heating degree days 12  
Since 1 July heating degree days 284  
Cooling Degree Days 0 0  
Month to date cooling degree days 0  
Year to date cooling degree days 317  
Growing Degree Days 4 (Base 50)    
Moisture  
Dew Point 51 °F    
Average Humidity 92    
Maximum Humidity 100    
Minimum Humidity 80    
Precipitation  
Precipitation 0.06 in 0.14 in 1.70 in (1977)
Month to date precipitation 0.14  
Year to date precipitation 30.22  
Snow  
Snow 0.00 in 0.00 in 0.00 in (2002)
Month to date snowfall 0.0  
Since 1 July snowfall 0.0  
Since 1 September snowfall 0.0  
Snow Depth -    
Sea Level Pressure  
Sea Level Pressure 29.96 in    
Wind  
Wind Speed 6 mph (South)    
Max Wind Speed 13 mph    
Max Gust Speed -    
Visibility 6 miles    
Events Rain    
T = Trace of Precipitation, MM = Missing Value Source: NWS Daily Summary

Daily Weather History Graph

Daily Weather History Graph

Search for Another Location

Airport or City:

Astronomy

Oct. 01, 2019 Rise Set
Actual Time 6:32 AM EDT 6:16 PM EDT
Civil Twilight 6:03 AM EDT 6:45 PM EDT
Nautical Twilight 5:29 AM EDT 7:19 PM EDT
Astronomical Twilight 4:55 AM EDT 7:53 PM EDT
Moon 9:51 AM EDT (10/1) 8:19 PM EDT (10/1)
Length of Visible Light 12h 41m
Length of Day
11h 43m
Waxing Crescent, 12% of the Moon is Illuminated
Oct 1
Waxing Crescent
Oct 5
First Quarter
Oct 13
Full
Oct 21
Last Quarter
Oct 27
New

Hourly Weather History & Observations

Time (EDT) Temp. Dew Point Humidity Pressure Visibility Wind Dir Wind Speed Gust Speed Precip Events Conditions
12:53 AM 48.0 °F 42.1 °F 80% 30.22 in 10.0 mi South 4.6 mph - N/A   Overcast
1:53 AM 48.9 °F 43.0 °F 80% 30.21 in 10.0 mi South 3.5 mph - N/A   Overcast
2:53 AM 48.9 °F 43.0 °F 80% 30.18 in 10.0 mi South 4.6 mph - N/A   Overcast
3:53 AM 48.0 °F 45.0 °F 89% 30.17 in 10.0 mi SSW 4.6 mph - 0.00 in Rain Light Rain
4:53 AM 48.0 °F 45.0 °F 89% 30.16 in 10.0 mi SSE 4.6 mph - 0.01 in Rain Light Rain
5:53 AM 48.0 °F 46.0 °F 93% 30.13 in 10.0 mi South 3.5 mph - 0.01 in   Mostly Cloudy
6:53 AM 48.9 °F 45.0 °F 86% 30.12 in 10.0 mi South 8.1 mph - 0.00 in   Overcast
7:20 AM 48.9 °F 45.0 °F 86% 30.11 in 10.0 mi South 6.9 mph - N/A   Overcast
7:53 AM 48.9 °F 46.0 °F 90% 30.12 in 10.0 mi South 3.5 mph - N/A   Overcast
8:53 AM 48.9 °F 44.1 °F 83% 30.11 in 10.0 mi SE 5.8 mph - N/A   Overcast
9:53 AM 50.0 °F 44.1 °F 80% 30.11 in 10.0 mi SSE 5.8 mph - N/A   Overcast
10:53 AM 51.1 °F 46.0 °F 83% 30.08 in 10.0 mi SSE 6.9 mph - N/A   Overcast
11:41 AM 51.1 °F 48.0 °F 89% 30.04 in 9.0 mi SE 9.2 mph - N/A   Overcast
11:53 AM 52.0 °F 48.9 °F 89% 30.05 in 6.0 mi SE 6.9 mph - N/A   Overcast
12:44 PM 52.0 °F 50.0 °F 93% 30.02 in 2.5 mi SE 8.1 mph - N/A   Overcast
12:53 PM 52.0 °F 51.1 °F 97% 30.03 in 2.5 mi SSE 4.6 mph - N/A   Overcast
1:53 PM 54.0 °F 53.1 °F 97% 29.98 in 1.5 mi SSE 5.8 mph - 0.00 in   Light Drizzle
2:53 PM 55.9 °F 55.0 °F 97% 29.95 in 1.5 mi South 9.2 mph - 0.00 in   Overcast
3:10 PM 55.9 °F 55.0 °F 97% 29.93 in 2.5 mi South 12.7 mph - N/A   Overcast
3:45 PM 57.0 °F 55.9 °F 96% 29.89 in 4.0 mi South 9.2 mph - 0.01 in   Light Drizzle
3:53 PM 57.0 °F 55.0 °F 93% 29.88 in 3.0 mi SSE 12.7 mph - 0.01 in   Light Drizzle
4:53 PM 55.9 °F 55.0 °F 97% 29.88 in 2.0 mi South 11.5 mph - 0.00 in   Light Drizzle
5:50 PM 55.4 °F 55.4 °F 100% 29.86 in 1.5 mi South 10.4 mph - 0.00 in   Light Drizzle
5:53 PM 55.9 °F 55.0 °F 97% 29.86 in 1.5 mi South 10.4 mph - 0.00 in   Light Drizzle
6:22 PM 55.9 °F 55.0 °F 97% 29.85 in 2.0 mi South 10.4 mph - 0.00 in   Light Drizzle
6:53 PM 55.9 °F 55.0 °F 97% 29.83 in 2.0 mi South 10.4 mph - 0.00 in   Light Drizzle
7:53 PM 57.0 °F 55.9 °F 96% 29.79 in 2.0 mi South 9.2 mph - 0.00 in   Light Drizzle
8:00 PM 57.0 °F 55.9 °F 96% 29.79 in 1.5 mi South 6.9 mph - 0.00 in   Light Drizzle
8:53 PM 57.9 °F 57.0 °F 97% 29.78 in 1.5 mi South 4.6 mph - 0.00 in   Light Drizzle
9:49 PM 57.2 °F 57.2 °F 100% 29.71 in 6.0 mi South 10.4 mph - 0.00 in   Overcast
9:53 PM 57.9 °F 57.0 °F 97% 29.73 in 6.0 mi SSW 5.8 mph - 0.00 in   Overcast
10:04 PM 59.0 °F 57.9 °F 96% 29.74 in 7.0 mi Calm Calm - N/A   Overcast
10:53 PM 59.0 °F 57.9 °F 96% 29.71 in 8.0 mi Calm Calm - N/A   Overcast
11:53 PM 59.0 °F 57.9 °F 96% 29.67 in 10.0 mi Calm Calm - 0.03 in Rain Light Rain